{"data":{"norad_id":56004,"intl_designator":"2023-042U","name":"STARLINK-5787","alt_names":[],"object_type":"PAYLOAD","status":"ACTIVE","operator":null,"country":"US","launch_date":"2023-03-24","launch_site_code":"AFETR","launch_vehicle":null,"mission":null,"orbit_class":"UNKNOWN","rcs_meters":null,"size_class":null,"mass_kg":null,"dimensions":null,"purposes":["comms"],"wikipedia_slug":null,"has_3d_model":false,"image_url":null,"decayed_at":null,"tle_current":{"epoch":"2026-09-20T20:06:30.036096Z","epoch_age_seconds":77002,"freshness":"FRESH","line1":"1 56004U 23042U   26263.83784764 -.00000052  00000+0  76523-5 0  9997","line2":"2 56004  43.0058  41.0251 0001743 282.3417  77.7240 15.27577447192673","mean_motion":15.27577447,"eccentricity":0.0001743,"inclination_deg":43.0058,"raan_deg":41.0251,"arg_perigee_deg":282.3417,"mean_anomaly_deg":77.724,"bstar":7.6523e-6,"rev_number":19267,"period_min":94.266906259189,"perigee_km":481.86083458174,"apogee_km":484.25264671973,"semimajor_km":6861.1937406507,"source":"CELESTRAK","updated_at":"2026-09-21T09:00:33.352649Z"}}}